www.pogodaiklimat.ru

Погода и климат >> Архив погоды >> Хорватия >> Dubrovnik-Gorica


ПОГОДА в Dubrovnik-Gorica

  • Прогноз погоды в Dubrovnik-Gorica
  • Монитор погоды в Dubrovnik-Gorica
  • Климат города

АРХИВ ПОГОДЫ в Dubrovnik-Gorica

Время (UTC), дата Ветер
(напр.,м/с)
 
Видим.   Явления Облачность Т
(С)
Тd
(С)
f
(%)
Тe
(С)
Тes
(С)
Комфортность P
(гПа)
Po
(гПа)
Тmin
(С)
Tmax
(С)
R
(мм)
R24
(мм)
S
(см)
03 13.11 Ю 16
{16}
15 км 10/4 600 м
[Cu med, cong Ac As]
+17.4 +15.3 87 +15 +15 1000.4 994.2
05 13.11 Ю 16
{16}
15 км 10/5 300 м
[Frnb Ac As]
+17.5 +16.0 91 +16 +16 999.2 993.0
04 13.11 Ю 14
{14}
15 км 10/4 600 м
[Cu med, cong Ac As]
+17.0 +15.4 90 +15 +15 999.3 993.1
06 13.11 Ю 15
{15}
15 км 10/5 300 м
[Frnb Ac As]
+17.4 +15.3 87 +15 +15 999.2 993.0 +16.9 4
07 13.11 Ю 15
{15}
15 км 8/8 300 м
[Frnb]
+17.3 +15.2 87 +15 +15 999.1 992.9
08 13.11 Ю 14 15 км 8/8 300 м
[Frnb]
+17.8 +15.1 84 +16 +16 999.2 993.0
09 13.11 Ю 13 15 км 8/8 300 м
[Frnb]
+17.7 +15.4 86 +16 +16 999.2 993.0
11 13.11 ЮВ 14 15 км 8/8 600 м
[Cu med, cong]
+18.3 +15.7 85 +17 +17 999.0 992.9
10 13.11 Ю 14 12 км дождь 8/8 600 м
[Cu med, cong]
+16.9 +15.1 89 +15 +15 998.7 992.5
12 13.11 Ю 14 15 км 8/8 600 м
[Cu med, cong]
+18.1 +14.9 82 +17 +17 998.8 992.6 3
13 13.11 ЮВ 12 15 км 10/5 300 м
[Frnb As trans]
+17.9 +15.2 84 +16 +16 998.8 992.6
19 13.11 В 6 12 км 9/9 600 м
[Cu med, cong]
+14.2 +11.4 83 +12 +12 1000.3 994.0
20 13.11 ЮВ 7 12 км 9/9 600 м
[Cu med, cong]
+14.5 +11.7 83 +12 +12 1001.2 995.0
03 14.11 С 3 15 км 6/4 1000 м
[Cu med, cong Ci fib]
+13.4 +9.4 77 +12 +12 1004.3 998.0
04 14.11 СВ 6 15 км 8/5 1000 м
[Cu med, cong Ci fib]
+14.2 +9.1 71 +12 +12 1004.3 998.0
05 14.11 СВ 1 15 км 6/6 1000 м
[Cu med, cong]
+14.6 +8.6 67 +15 +15 1005.3 998.9
06 14.11 СВ 7 15 км 10/3 1000 м
[Cu med, cong Ac As]
+15.2 +7.8 61 +13 +13 1005.9 999.6 +13.0 9
07 14.11 СВ 7 15 км 9/4 1000 м
[Cu med, cong As trans]
+15.5 +8.2 62 +14 +14 1006.4 1000.1
08 14.11 СВ 8 15 км 8/3 1000 м
[Cu med, cong As trans]
+15.8 +7.0 56 +14 +14 1007.1 1000.8
09 14.11 СВ 6 15 км 10/4 1000 м
[Cu med, cong Ac As]
+16.9 +7.8 55 +16 +16 1007.3 1001.1
10 14.11 СВ 7 15 км 10/4 1000 м
[Cu med, cong Ac As]
+16.5 +6.8 53 +15 +15 1007.8 1001.5
11 14.11 В 5 15 км 10/5 1000 м
[Cu med, cong Ac As]
+16.8 +7.0 52 +16 +16 1008.3 1002.0
12 14.11 СВ 8 15 км слабый дождь 10/3 600 м
[Cu med, cong Ac As]
+13.5 +7.1 65 +11 +11 1008.4 1002.0 1
13 14.11 СВ 10 15 км 10/3 1000 м
[Cu med, cong As op]
+12.8 +8.1 73 +10 +10 1008.4 1002.0
18 14.11 СВ 14
{24}
15 км в посл. час дождь 10/4 600 м
[Sc As op]
+13.6 +6.8 63 +10 +10 1009.5 1003.1 +17.1 9
20 14.11 СВ 11
{21}
15 км в посл. час дождь 10/4 600 м
[Sc As op]
+14.3 +5.1 54 +12 +12 1011.0 1004.6
19 14.11 СВ 12 15 км слабый дождь 10/4 600 м
[Sc As op]
+13.0 +7.5 69 +10 +10 1010.4 1004.1
03 15.11 СВ 11
{20}
20 км 8/3 1500 м
[Sc Ac trans]
+15.1 +4.0 47 +13 +13 1010.5 1004.1
04 15.11 СВ 10 20 км 6/3 1500 м
[Sc Ac trans]
+16.0 +4.2 45 +14 +14 1011.1 1004.8
05 15.11 СВ 8 20 км 9/3 1500 м
[Sc Ac As]
+16.6 +4.5 45 +15 +15 1011.2 1004.9
06 15.11 СВ 8 20 км 10/0
[Ac As]
+14.6 +5.7 55 +13 +13 1012.5 1006.1 +13.0 0.7
08 15.11 СВ 9 20 км 10/0
[Ac As]
+16.0 +4.9 48 +14 +14 1013.4 1007.1
07 15.11 СВ 12
{18}
20 км 10/0
[Ac As]
+14.8 +4.5 50 +12 +12 1013.3 1006.9
09 15.11 В 7 20 км 10/0
[Ac As]
+16.1 +7.6 57 +15 +15 1014.3 1008.0
10 15.11 В 5 20 км слабый дождь 10/0
[Ac As]
+15.5 +8.8 64 +14 +15 1015.3 1008.9
11 15.11 В 5 20 км слабый дождь 10/0
[As op]
+14.2 +11.2 82 +12 +13 1015.7 1009.3
12 15.11 СВ 6 20 км в посл. час дождь 10/0
[As op]
+13.7 +8.9 73 +12 +12 1015.4 1009.1 4
13 15.11 СВ 8 20 км {дождь} 10/0
[Ac As]
+13.9 +8.4 69 +11 +12 1015.3 1008.9
18 15.11 СВ 6 20 км 3/3 1000 м
[Cu med, cong]
+14.8 +5.7 54 +13 +13 1015.3 1009.0 +16.1 4
19 15.11 СВ 5 20 км 3/3 1000 м
[Cu med, cong]
+14.9 +5.4 53 +14 +14 1015.3 1009.0
20 15.11 СВ 9 20 км 3/3 1000 м
[Cu med, cong]
+14.7 +3.9 48 +13 +13 1015.3 1009.0
03 16.11 СВ 9 15 км 8/8 1000 м
[Cu med, cong]
+15.4 +5.1 50 +13 +13 1013.7 1007.4
04 16.11 СВ 8 15 км 9/3 1000 м
[Cu med, cong Ac As]
+15.2 +3.6 46 +13 +13 1013.3 1007.0
05 16.11 СВ 9 15 км 9/3 1000 м
[Cu med, cong Ac As]
+14.9 +3.7 47 +13 +13 1013.2 1006.8
06 16.11 СВ 10 15 км 10/3 1000 м
[Cu med, cong Ac As]
+15.4 +4.1 47 +13 +13 1012.5 1006.2 +14.7
07 16.11 СВ 8 15 км 10/3 1000 м
[Cu med, cong Ac As]
+17.3 +4.2 42 +16 +16 1013.1 1006.8
08 16.11 ЮВ 9 15 км 10/4 1000 м
[Cu med, cong Ac As]
+18.8 +8.4 51 +18 +18 1013.4 1007.1
09 16.11 ЮВ 16
{23}
15 км 10/4 600 м
[Cu med, cong Ac As]
+16.6 +10.9 69 +14 +14 1015.3 1009.0
10 16.11 В 4 15 км 9/3 1000 м
[Cu med, cong As trans]
+16.5 +12.1 75 +16 +17 1016.1 1009.8
11 16.11 В 4 15 км 9/3 1000 м
[Cu med, cong Ac As]
+17.8 +6.4 47 +18 +19 1015.3 1009.0
12 16.11 СВ 6 15 км 8/3 1000 м
[Cu med, cong As trans]
+18.0 +6.0 45 +17 +18 1014.3 1008.0
13 16.11 В 4 15 км 8/4 1000 м
[Cu med, cong As trans]
+18.3 +4.9 41 +18 +19 1014.2 1007.9
18 16.11 СВ 5 20 км 3/3 1000 м
[Cu med, cong]
+16.8 +5.0 46 +16 +16 1014.1 1007.8 +21.2
19 16.11 СВ 4 20 км ясно +16.0 +4.2 45 +15 +15 1014.1 1007.8
20 16.11 СВ 9 20 км ясно +15.9 +4.0 45 +14 +14 1014.1 1007.8
03 17.11 СВ 7 30 км ясно +14.5 +1.7 42 +13 +13 1012.4 1006.0
05 17.11 СВ 8 30 км 4/0
[Ac trans]
+14.6 +2.2 43 +13 +13 1012.4 1006.0
04 17.11 СВ 8 30 км ясно +14.3 +1.1 41 +12 +12 1012.4 1006.0
06 17.11 СВ 4 30 км 6/0
[Ac und]
+15.0 +1.6 40 +14 +14 1012.4 1006.0 +14.2
07 17.11 СВ 5 30 км 8/0
[Ac und Cs]
+14.8 +1.6 41 +14 +14 1012.4 1006.0
08 17.11 СВ 6 30 км 8/1 1000 м
[Cu hum Ac lent Cs]
+16.3 +2.5 39 +15 +16 1012.8 1006.4
09 17.11 СВ 8 30 км 8/1 1000 м
[Cu hum Ac lent Cs]
+16.4 +2.9 40 +15 +15 1012.9 1006.6
11 17.11 СЗ 2 30 км 5/0
[Ac lent Ci fib]
+19.6 +5.3 39 +21 +24 комфорт 1012.3 1006.0
10 17.11 СВ 4 30 км 6/0
[Ac lent Cs]
+18.5 +3.1 36 +19 +21 1012.7 1006.4
12 17.11 СЗ 2 30 км 5/0
[Ac lent Ci fib]
+20.3 +5.5 38 +22 +24 комфорт 1012.0 1005.8
13 17.11 СЗ 2 30 км 4/0
[Ac lent Ci fib]
+20.4 +6.4 40 +22 +24 комфорт 1012.0 1005.8
18 17.11 СВ 5 30 км ясно +17.0 +3.8 41 +16 +16 1011.5 1005.2 +21.1
19 17.11 СВ 8 30 км ясно +16.3 +3.8 43 +15 +15 1011.5 1005.2
20 17.11 СВ 10 30 км ясно +15.5 +3.7 45 +13 +13 1011.7 1005.3
03 18.11 СВ 7 30 км ясно +14.6 +2.4 44 +13 +13 1011.6 1005.2
04 18.11 СВ 5 30 км ясно +14.3 +2.3 44 +13 +13 1011.5 1005.1
05 18.11 СВ 6 30 км ясно +14.7 +2.9 45 +13 +13 1011.5 1005.1
06 18.11 СВ 4 30 км 1/0
[Ac lent]
+14.0 +2.7 46 +13 +13 1011.5 1005.1 +13.8
08 18.11 ЮЗ 2 30 км 1/0
[Ac lent]
+16.2 +3.4 42 +16 +18 1012.5 1006.2
09 18.11 ЮЗ 1 30 км 3/0
[Ac lent]
+18.1 +4.3 40 +19 +22 1012.6 1006.3
11 18.11 ЮЗ 2 30 км 6/0
[Ac und]
+18.8 +6.8 46 +20 +22 1012.3 1006.0
10 18.11 Ю 2 30 км 3/0
[Ac cast]
+19.3 +5.3 40 +20 +24 1012.4 1006.2
12 18.11 З 2 30 км 8/0
[Ac und]
+18.0 +7.4 50 +19 +20 1011.9 1005.6
13 18.11 З 3 30 км 8/0
[Ac und]
+18.3 +6.9 47 +19 +20 1011.9 1005.6
18 18.11 С 1 30 км ясно +14.0 +9.1 72 +14 +14 1011.6 1005.2 +19.5
19 18.11 С 2 30 км 1/1 1000 м
[Cu hum]
+13.8 +9.1 73 +13 +13 1011.7 1005.3
20 18.11 С 3 30 км 3/3 1000 м
[Cu med, cong]
+15.3 +4.5 48 +15 +15 1011.8 1005.5
03 19.11 С 2 20 км 4/4 1000 м
[Cu med, cong]
+13.8 +4.7 54 +13 +13 1010.6 1004.3
04 19.11 СЗ 2 20 км 6/6 1000 м
[Cu med, cong]
+13.1 +5.0 58 +13 +13 1010.8 1004.4
05 19.11 С 2 20 км 3/3 1000 м
[Cu med, cong]
+12.8 +5.3 60 +12 +12 1010.8 1004.4
06 19.11 С 2 20 км 3/3 1000 м
[Cu med, cong Ci fib]
+12.3 +5.2 62 +12 +12 1010.8 1004.4 +12.3
07 19.11 СЗ 2 20 км 4/4 1000 м
[Cu med, cong Ci fib]
+12.9 +5.2 59 +12 +13 1010.8 1004.4
08 19.11 СЗ 2 20 км 6/6 1000 м
[Cu med, cong]
+13.3 +6.4 63 +13 +13 1010.8 1004.4
09 19.11 СЗ 2 20 км 8/3 1000 м
[Cu med, cong Ac und]
+14.2 +7.0 62 +14 +15 1011.4 1005.0
10 19.11 СЗ 2 20 км 9/3 1000 м
[Cu med, cong Ac und]
+15.1 +6.8 58 +15 +16 1011.1 1004.8
11 19.11 ЮЗ 2 20 км 8/3 1000 м
[Cu med, cong Ac und]
+16.2 +8.8 62 +16 +18 1010.4 1004.1
12 19.11 З 3 20 км 8/3 1000 м
[Cu med, cong Ac und]
+15.3 1010.5 1004.1
13 19.11 З 2 20 км 9/3 1000 м
[Cu med, cong Ac und]
+14.7 +6.1 56 +15 +15 1010.2 1003.9
18 19.11 С 2 20 км 1/1 1000 м
[Cu med, cong]
+12.6 +6.0 64 +12 +12 1009.6 1003.2 +16.2
20 19.11 С 3 20 км ясно +11.2 +6.1 71 +9 +9 1010.4 1004.0
19 19.11 СЗ 2 20 км 1/1 1000 м
[Cu med, cong]
+12.3 +5.9 65 +12 +12 1010.0 1003.6

 

Местоположение метеостанции Dubrovnik-Gorica (Хорватия): широта 42.65 долгота 18.08 высота над уровнем моря 53 м.

В архиве по умолчанию представлена погода в Dubrovnik-Gorica за последнюю неделю. Архивные данные за месяц целиком и за предыдущие месяцы, начиная с января 2011 года, Вы можете получить, выбрав интересующий диапазон дат из раскрывающегося списка и нажав кнопку "Ввод!".

Внимание! Время в таблицах - всемирное. Для получения местного времени необходимо прибавить поправку, которая в Dubrovnik-Gorica равна 1 ч.

Смотрите также архив погоды в соседних городах и на ближайших метеорологических станциях:

Погода в Dubrovnik-Cilipi (Хорватия) (18 км)
Погода в Neum (Босния и Герцеговина) (49 км)
Погода в Tivat (Черногория) (60 км)
Погода в Ploce (Хорватия) (68 км)
Погода в Niksic (Черногория) (72 км)
Погода в Mostar (Босния и Герцеговина) (81 км)
Погода в Lastovo (Хорватия) (97 км)
Погода в Podgorica (Черногория) (101 км)
Погода в Podgorica-Grad (Черногория) (101 км)
Погода в Bar (Черногория) (104 км)

Пояснения к столбцам:

Ветер - указаны скорость ветра в м/с - средняя за 10 мин, порывы в срок и между сроками (в фигурных скобках) и направление, откуда дует ветер: С - северный, СВ - северо-восточный, В - восточный, ЮВ - юго-восточный, Ю - южный, ЮЗ - юго-западный, З - западный, СЗ - северо-западный.
Видимость - горизонтальная дальность видимости в метрах или километрах. При видимости от 1 до 10 км при отсутствии осадков обычно наблюдается дымка, при ухудшении видимости до 1 км и менее - туман. В сухую погоду видимость может ухудшаться дымом, пылью или мглою.
Явления - указаны атмосферные явления, наблюдавшиеся в срок или в последний час перед сроком; фигурными скобками обозначены явления, наблюдавшиеся между сроками (за 1-3 часа до срока); квадратными скобками обозначены град или гололедные отложения с указанием их диаметра в мм.
Облачность - указаны через наклонную черту общая и нижняя облачность в баллах и высота нижней границы облаков в метрах; квадратными скобками обозначены формы облаков: Ci - перистые, Cs - перисто-слоистые, Cc - перисто-кучевые, Ac - высококучевые, As - высокослоистые, Sc - слоисто-кучевые, Ns - слоисто-дождевые, Cu - кучевые, Cb - кучево-дождевые. Подробнее классификацию облаков см. в Атласе облаков (PDF).
T - Температура воздуха - температура, измеренная на высоте 2 м над землей.
Td - Температура точки росы - температура, при понижении до которой содержащийся в воздухе водяной пар достигнет насыщения.
f - Относительная влажность воздуха - влажноcть воздуха, измеренная на высоте 2 м над землей.
Te - Эффективная температура - температура, которую ощущает одетый по сезону человек в тени. Характеристика душности погоды. При расчете учитывается влияние влажности воздуха и скорости ветра на теплоощущения человека.
Tes - Эффективная температура на солнце - температура, которую ощущает человек, с поправкой на солнечный нагрев. Характеристика знойности погоды. Зависит от высоты солнца над горизонтом, облачности и скорости ветра. Ночью, в пасмурную погоду, а также при ветре 12 м/с и более поправка равна нулю.
P - Атмосферное давление - приведенное к уровню моря атмосферное давление.
Po - Атмосферное давление - измеренное на уровне метеостанции атмосферное давление.
Tmin - Минимальная температура - минимум температуры воздуха на высоте 2 м над землей.
Tmax - Максимальная температура - максимум температуры воздуха на высоте 2 м над землей.
R - Количество осадков - Количество выпавших осадков за период времени, мм. При наведении курсора мыши на число - период времени, за который выпало указанное количество осадков.
R24 - Количество осадков - Количество выпавших осадков за 24 часа, мм.
S - Снежный покров - Высота снежного покрова, см. При наведении курсора мыши на число - состояние снежного покрова и степень покрытия местности в баллах.